WZ9ZZZ-1 Weather Reports


time (UTC)temp
F
wind
direction
speed
knots
gust
knots
rain 1hr
in
rain 24hr
in
rain mn
in
humidity
%
barometer
mb
20260502182658 75 93 7.8 12.2 0.00 0.00 0.00 51 1022.8
20260502182153 75 86 4.3 7.8 0.00 0.00 0.00 52 1023.1
20260502181651 74 101 0.0 0.9 0.00 0.00 0.00 53 1023.3
20260502181150 74 97 4.3 7.0 0.00 0.00 0.00 50 1023.2
20260502180647 74 94 1.7 2.6 0.00 0.00 0.00 52 1023.5
20260502180144 75 117 2.6 5.2 0.00 0.00 0.00 51 1023.6
20260502170108 71 96 2.6 4.3 0.00 0.00 0.00 58 1023.5
20260502164055 71 113 0.0 1.7 0.00 0.00 0.00 61 1023.4
20260502163550 70 65 1.7 4.3 0.00 0.00 0.00 61 1023.4
20260502163048 70 117 3.5 5.2 0.00 0.00 0.00 62 1023.5
20260502162544 71 100 7.0 9.6 0.00 0.00 0.00 60 1023.5
20260502162042 72 79 2.6 2.6 0.00 0.00 0.00 64 1023.5
20260502161538 70 85 4.3 7.0 0.00 0.00 0.00 64 1023.3
20260502161036 70 98 4.3 6.1 0.00 0.00 0.00 64 1023.3
20260502160534 69 101 4.3 8.7 0.00 0.00 0.00 65 1023.3
20260502151941 67 55 0.9 2.6 0.00 0.00 0.00 72 1023.3
20260502151438 66 79 2.6 4.3 0.00 0.00 0.00 71 1023.2
20260502150935 66 73 3.5 6.1 0.00 0.00 0.00 73 1023.0
20260502150432 66 95 2.6 4.3 0.00 0.00 0.00 74 1023.1
20260502130318 58 100 1.7 2.6 0.00 0.00 0.00 88 1022.2
20260502123803 56 62 1.7 4.3 0.00 0.00 0.00 89 1021.6
20260502123300 56 105 0.9 1.7 0.00 0.00 0.00 89 1021.6
20260502122757 56 92 0.9 0.9 0.00 0.00 0.00 89 1021.5
20260502122253 55 99 1.7 1.7 0.00 0.00 0.00 90 1021.4
20260502121751 55 113 2.6 4.3 0.00 0.00 0.00 90 1021.3
20260502121249 55 117 1.7 1.7 0.00 0.00 0.00 90 1021.3
20260502120745 55 89 1.7 1.7 0.00 0.00 0.00 90 1021.3
20260502120242 55 112 0.0 0.9 0.00 0.00 0.00 90 1021.3
20260502115740 55 108 1.7 2.6 0.00 0.00 0.00 90 1021.3
20260502115237 55 69 2.6 4.3 0.00 0.00 0.00 89 1021.1
20260502114732 55 89 0.9 1.7 0.00 0.00 0.00 89 1021.0
20260502114230 55 68 4.3 6.1 0.00 0.00 0.00 89 1021.0
20260502113727 55 83 2.6 2.6 0.00 0.00 0.00 89 1021.1
20260502113224 55 97 1.7 2.6 0.00 0.00 0.00 89 1020.9
20260502112722 55 87 2.6 5.2 0.00 0.00 0.00 89 1020.8
20260502112220 55 102 2.6 4.3 0.00 0.00 0.00 88 1020.9
20260502111717 55 103 0.9 1.7 0.00 0.00 0.00 88 1020.8
20260502111214 55 96 4.3 6.1 0.00 0.00 0.00 88 1020.9
20260502110712 55 110 0.9 0.9 0.00 0.00 0.00 88 1020.7
20260502110209 55 98 0.9 0.9 0.00 0.00 0.00 88 1020.5
20260502105707 55 91 0.9 0.9 0.00 0.00 0.00 88 1020.6
20260502105203 55 115 0.9 1.7 0.00 0.00 0.00 88 1020.5
20260502104701 55 91 2.6 4.3 0.00 0.00 0.00 87 1020.2
20260502104158 55 130 0.9 0.9 0.00 0.00 0.00 87 1020.2
20260502103655 55 67 2.6 5.2 0.00 0.00 0.00 87 1020.1
20260502103153 55 97 1.7 1.7 0.00 0.00 0.00 87 1020.2
20260502102650 55 123 1.7 2.6 0.00 0.00 0.00 87 1020.1
20260502102147 55 99 2.6 2.6 0.00 0.00 0.00 86 1019.7
20260502101645 55 74 0.9 1.7 0.00 0.00 0.00 86 1019.8
20260502101143 55 82 3.5 5.2 0.00 0.00 0.00 86 1019.5
20260502100641 55 89 2.6 5.2 0.00 0.00 0.00 86 1019.5
20260502100139 55 109 1.7 2.6 0.00 0.00 0.00 86 1019.5
20260502091113 55 88 3.5 4.3 0.00 0.00 0.00 88 1018.9
20260502090610 55 92 4.3 6.1 0.00 0.00 0.00 88 1018.8
20260502090107 55 121 2.6 4.3 0.00 0.00 0.00 87 1019.0
20260502071504 56 92 0.9 2.6 0.00 0.00 0.00 95 1018.9
20260502071003 56 75 3.5 5.2 0.00 0.00 0.00 95 1018.7
20260502070500 56 103 6.1 7.8 0.00 0.00 0.00 95 1018.6
20260502065958 56 94 4.3 6.1 0.00 0.00 0.00 96 1018.5
20260502065456 56 84 2.6 4.3 0.00 0.00 0.00 96 1018.7
20260502064954 56 90 6.1 7.0 0.00 0.00 0.00 96 1018.7
20260502064452 56 113 3.5 6.1 0.00 0.00 0.00 96 1018.5
20260502063949 56 48 6.1 8.7 0.00 0.00 0.00 96 1018.6
20260502063447 56 92 4.3 8.7 0.00 0.00 0.00 97 1018.5
20260502062944 56 93 3.5 6.1 0.00 0.00 0.00 97 1018.4
20260502062441 55 78 1.7 5.2 0.00 0.00 0.00 97 1018.4
20260502061940 55 67 1.7 1.7 0.00 0.00 0.00 97 1018.2
20260502061437 56 76 2.6 4.3 0.00 0.00 0.00 97 1018.4
20260502060933 56 76 4.3 7.8 0.00 0.00 0.00 97 1018.1
20260502060428 55 111 0.9 1.7 0.00 0.00 0.00 98 1018.4
20260502055925 56 104 3.5 5.2 0.00 0.00 0.00 98 1018.3
20260502055424 55 60 2.6 7.0 0.00 0.00 0.00 98 1018.5
20260502054923 55 95 7.0 11.3 0.00 0.00 0.00 98 1018.3
20260502054420 56 138 4.3 6.1 0.00 0.00 0.00 98 1018.6
20260502053918 55 106 4.3 8.7 0.00 0.00 0.00 98 1018.9
20260502053415 55 103 1.7 1.7 0.00 0.00 0.00 98 1018.9
20260502052912 55 87 4.3 7.8 0.00 0.00 0.00 98 1018.7
20260502052411 55 87 3.5 7.0 0.00 0.00 0.00 98 1018.8
20260502051908 55 85 7.8 20.0 0.00 0.00 0.00 98 1018.4
20260502051406 55 112 1.7 6.1 0.00 0.00 0.00 98 1018.4
20260502050903 55 80 2.6 4.3 0.00 0.00 0.00 98 1018.8
20260502050359 55 106 1.7 4.3 0.00 0.00 0.00 98 1018.8
20260502045856 55 42 2.6 6.1 0.00 3.95 3.95 98 1018.8
20260502045353 55 97 2.6 4.3 0.00 3.95 3.95 98 1018.7
20260502044850 55 112 2.6 5.2 0.00 3.95 3.95 98 1018.6
20260502044346 55 59 2.6 5.2 0.00 3.95 3.95 98 1018.8
20260502043843 55 87 0.9 0.9 0.00 3.95 3.95 98 1018.7
20260502043340 55 130 0.9 1.7 0.00 3.95 3.95 98 1018.8
20260502042834 55 83 4.3 5.2 0.00 3.95 3.95 98 1018.7
20260502042332 55 85 2.6 4.3 0.00 3.95 3.95 98 1018.7
20260502041829 55 103 0.9 2.6 0.00 3.95 3.95 98 1018.5
20260502041326 55 85 1.7 2.6 0.00 3.95 3.95 98 1018.4
20260502040823 56 81 4.3 5.2 0.07 3.95 3.95 98 1018.4
20260502040320 56 105 1.7 5.2 0.07 3.95 3.95 98 1018.1
20260502035816 56 88 6.1 7.0 0.00 3.94 3.94 98 1017.9
20260502035313 56 98 2.6 4.3 0.00 3.94 3.94 98 1017.8
20260502034810 56 94 0.9 1.7 0.00 3.94 3.94 98 1017.9
20260502034309 56 72 2.6 6.1 0.00 3.94 3.94 98 1018.1
20260502033806 56 102 1.7 2.6 0.00 3.94 3.94 98 1017.9
20260502033303 56 92 0.9 1.7 0.00 3.94 3.94 98 1017.2
20260502032800 57 67 1.7 5.2 0.00 3.94 3.94 98 1017.3
20260502032257 57 90 1.7 1.7 0.00 3.94 3.94 98 1017.5
20260502031754 57 64 5.2 7.8 0.05 3.94 3.94 98 1016.8
20260502031253 57 105 1.7 2.6 0.05 3.94 3.94 98 1016.6
20260502030751 57 109 5.2 9.6 0.07 3.93 3.93 98 1016.3
20260502030248 57 105 0.0 0.9 0.07 3.93 3.93 98 1016.2
20260502025746 57 79 0.0 0.9 0.07 3.92 3.92 98 1016.6
20260502025244 58 99 2.6 5.2 0.07 3.92 3.92 98 1016.9
20260502024741 58 74 0.0 1.7 0.05 3.91 3.91 98 1017.0
20260502024239 58 70 2.6 4.3 0.05 3.91 3.91 98 1016.9
20260502023736 58 69 1.7 1.7 0.00 3.90 3.90 98 1016.9
20260502023233 58 88 4.3 6.1 0.00 3.90 3.90 98 1016.7
20260502022726 58 56 1.7 1.7 0.07 3.90 3.90 98 1016.9
20260502022222 58 95 0.9 0.9 0.07 3.90 3.90 98 1016.6
20260502021719 58 57 1.7 1.7 0.00 3.89 3.89 98 1016.6
20260502021217 58 102 1.7 2.6 0.05 3.89 3.89 98 1016.7
20260502020713 58 97 0.9 0.9 0.05 3.89 3.89 98 1016.9
20260502020210 58 127 0.9 0.9 0.00 3.88 3.88 98 1016.6
20260502015708 58 100 0.9 1.7 0.00 3.88 3.88 98 1016.4
20260502015204 58 107 0.9 1.7 0.07 3.88 3.88 98 1016.3
20260502014702 59 87 0.9 0.9 0.12 3.88 3.88 98 1016.1
20260502014159 59 74 0.0 0.9 0.17 3.87 3.87 98 1016.0
20260502013655 59 112 0.9 0.9 0.19 3.86 3.86 98 1016.0
20260502013150 59 109 0.0 0.9 0.12 3.85 3.85 98 1015.8
20260502012648 59 79 0.9 1.7 0.05 3.83 3.83 98 1015.5
20260502012146 59 104 0.9 1.7 0.05 3.83 3.83 98 1015.5
20260502011642 59 124 1.7 2.6 0.00 3.82 3.82 98 1015.5
20260502011138 59 99 0.0 0.0 0.00 3.82 3.82 98 1014.9
20260502010636 59 77 6.1 7.8 0.07 3.82 3.82 98 1014.2
20260502010132 59 81 3.5 5.2 0.19 3.82 3.82 98 1013.9
20260502005630 59 67 5.2 8.7 0.19 3.81 3.81 98 1013.9
20260502005127 59 67 0.9 2.6 0.19 3.79 3.79 98 1014.0
20260502004622 59 102 2.6 5.2 0.35 3.78 3.78 98 1014.3
20260502004120 59 92 5.2 7.0 0.40 3.76 3.76 98 1014.1
20260502003618 59 40 2.6 5.2 0.42 3.73 3.73 98 1014.5
20260502003114 59 111 0.9 2.6 0.42 3.69 3.69 98 1014.5
20260502002610 59 105 2.6 6.1 0.47 3.66 3.66 98 1014.3
20260502002108 59 76 5.2 7.8 0.24 3.62 3.62 98 1014.0
20260502001606 59 94 0.9 1.7 0.12 3.59 3.59 98 1013.9
20260502001102 59 105 2.6 4.3 0.07 3.58 3.58 98 1013.5
20260502000601 59 87 6.1 9.6 0.00 3.57 3.57 98 1013.8
20260502000058 59 109 2.6 4.3 0.00 3.57 3.57 98 1013.8
20260501235554 59 106 1.7 4.3 0.00 3.57 3.57 98 1014.2
20260501235050 59 96 0.9 2.6 0.00 3.57 3.57 98 1014.0
20260501234545 60 99 2.6 6.1 0.05 3.57 3.57 98 1014.0
20260501234044 60 67 1.7 2.6 0.00 3.56 3.56 98 1013.9
20260501233541 60 80 3.5 6.1 0.00 3.56 3.56 98 1013.4
20260501233038 60 81 2.6 4.3 0.00 3.56 3.56 98 1012.8
20260501232534 60 67 1.7 4.3 0.00 3.56 3.56 98 1012.7
20260501232032 60 92 4.3 5.2 0.00 3.56 3.56 98 1012.9
20260501231529 60 61 2.6 4.3 0.07 3.56 3.56 98 1012.7
20260501231028 60 81 1.7 2.6 0.07 3.56 3.56 98 1013.0
20260501230526 60 83 4.3 6.1 0.00 3.55 3.55 98 1013.1
20260501230023 60 98 0.0 0.9 0.00 3.55 3.55 98 1013.2
20260501225521 61 69 3.5 7.0 0.00 3.55 3.55 98 1013.6
20260501225016 60 90 2.6 2.6 0.00 3.55 3.55 98 1013.5
20260501224514 61 85 9.6 13.0 0.07 3.55 3.55 98 1013.4
20260501224011 60 96 6.1 7.8 0.07 3.55 3.55 98 1013.4
20260501223508 61 84 4.3 7.0 0.00 3.54 3.54 98 1013.5
20260501223004 61 83 2.6 5.2 0.00 3.54 3.54 98 1013.6
20260501222500 61 104 6.1 7.8 0.00 3.54 3.54 98 1013.8
20260501221956 61 78 1.7 2.6 0.00 3.54 3.54 98 1013.9
20260501221454 61 107 5.2 7.8 0.00 3.54 3.54 98 1013.9
20260501220952 61 91 3.5 6.1 0.00 3.54 3.54 98 1014.2
20260501220449 61 98 0.0 0.9 0.00 3.54 3.54 98 1014.0
20260501215944 62 97 2.6 4.3 0.05 3.54 3.54 98 1013.8
20260501215442 61 83 6.1 8.7 0.05 3.54 3.54 98 1013.9
20260501214937 61 90 2.6 4.3 0.07 3.53 3.53 98 1014.1
20260501214433 61 115 6.1 7.0 0.19 3.53 3.53 98 1013.5
20260501213928 61 82 1.7 5.2 0.47 3.52 3.52 98 1013.2
20260501213426 62 100 7.0 8.7 0.54 3.50 3.50 98 1011.6
20260501212921 62 109 5.2 7.0 0.35 3.44 3.44 98 1013.2
20260501212418 62 112 2.6 4.3 0.35 3.41 3.41 98 1014.0
20260501211915 62 110 2.6 2.6 0.31 3.38 3.38 98 1013.3
20260501211412 62 90 2.6 5.2 0.24 3.35 3.35 98 1013.2
20260501210910 62 83 8.7 12.2 0.24 3.33 3.33 98 1013.2
20260501210406 62 90 1.7 2.6 0.24 3.31 3.31 98 1013.7
20260501205903 63 61 0.9 2.6 0.24 3.29 3.29 98 1013.4
20260501205400 63 98 3.5 5.2 0.35 3.27 3.27 98 1013.3
20260501204857 63 101 6.1 7.8 0.35 3.26 3.26 98 1012.9
20260501204353 63 89 4.3 7.0 0.19 3.21 3.21 98 1012.5
20260501203849 63 69 1.7 2.6 0.31 3.20 3.20 98 1012.7
20260501203347 63 69 6.1 8.7 0.78 3.18 3.18 98 1012.4
20260501202843 63 122 3.5 4.3 1.02 3.15 3.15 98 1011.5
20260501202341 63 114 1.7 1.7 0.92 3.06 3.06 98 1012.6
20260501201837 63 118 1.7 4.3 0.61 2.97 2.97 98 1012.4
20260501201334 63 103 3.5 4.3 0.31 2.90 2.90 98 1012.3
20260501200830 63 79 5.2 7.0 1.21 2.87 2.87 98 1011.8
20260501200328 63 70 4.3 5.2 2.93 2.85 2.85 98 1011.9
20260501195826 63 99 4.3 6.1 3.54 2.71 2.71 98 1012.4
20260501195321 63 114 2.6 4.3 1.44 2.33 2.33 97 1012.6
20260501194817 63 123 2.6 2.6 0.35 2.11 2.11 97 1013.2
20260501194314 63 96 0.9 0.9 0.26 2.08 2.08 97 1012.9
20260501193810 63 79 2.6 7.8 0.12 2.05 2.05 97 1011.7
20260501193309 63 98 7.0 12.2 0.24 2.04 2.04 97 1011.0
20260501192806 63 104 4.3 6.1 0.24 2.03 2.03 97 1011.4
20260501192306 63 93 7.0 8.7 0.12 2.01 2.01 97 1012.1
20260501191759 63 97 2.6 4.3 0.00 1.99 1.99 97 1012.7
20260501191256 63 45 1.7 1.7 0.00 1.99 1.99 97 1013.6
20260501190753 63 101 1.7 2.6 0.00 1.99 1.99 97 1013.6
20260501190249 63 117 3.5 4.3 0.00 1.99 1.99 97 1012.3
20260501185745 63 93 5.2 7.8 0.00 1.99 1.99 97 1012.7
20260501185240 63 95 0.0 0.9 0.00 1.99 1.99 97 1013.2
20260501184737 63 66 0.9 1.7 0.00 1.99 1.99 97 1013.3
20260501184232 63 87 4.3 5.2 0.07 1.99 1.99 97 1012.5
20260501183728 63 104 6.1 12.2 0.07 1.99 1.99 97 1012.4
20260501183226 63 94 3.5 7.0 0.00 1.98 1.98 97 1012.3